Regional Weather Roundup
Issued by NWS

Home | Current Version | Previous Version | Text Only | Print | Product List | Glossary Off
Versions: 1 2 3 4 5 6 7 8 9 10 11 12 13 14 15 16 17 18 19 20 21 22 23 24 25 26 27 28 29 30 31 32 33 34 35 36 37 38 39 40 41 42 43 44 45 46 47 48 49 50

420
ASUS43 KMKX 200000
RWRWI

WISCONSIN REGIONAL WEATHER ROUNDUP
NATIONAL WEATHER SERVICE MILWAUKEE/SULLIVAN WI
600 PM CST THU JAN 19 2017

NOTE: "FAIR" INDICATES FEW OR NO CLOUDS BELOW 12,000 FEET WITH NO
SIGNIFICANT WEATHER AND/OR OBSTRUCTIONS TO VISIBILITY.

WIZ001-002-006>008-014>016-023>028-200100-
NORTHWEST WISCONSIN

CITY           SKY/WX    TMP DP  RH WIND       PRES   REMARKS
SUPERIOR ARPT  CLEAR     32  32  99 CALM      29.76R FOG
ASHLAND        CLEAR     39  32  76 SW6       29.78R WCI  35
6HR MIN TEMP:  38; 6HR MAX TEMP:  48;

HAYWARD        CLEAR     32  29  88 CALM      29.78R
6HR MIN TEMP:  32; 6HR MAX TEMP:  43;

SIREN          MOCLDY    39  32  75 S6        29.77R
CUMBERLAND     CLOUDY    34  32  93 SE5       29.78R WCI  30
RICE LAKE      CLOUDY    36  33  88 SE8       29.80R WCI  29
CHETEK         NOT AVBL
LADYSMITH      PTCLDY    37  32  85 S6        29.81R WCI  32
EAU CLAIRE     CLOUDY    39  32  76 SE3       29.79F
6HR MIN TEMP:  37; 6HR MAX TEMP:  40;

MENOMONIE        N/A    N/A N/A N/A MISG        N/A
NEW RICHMOND   CLOUDY    36  31  82 SE3       29.77S
OSCEOLA        CLOUDY    37  32  82 SE8       29.79S WCI  31
$$

WIZ003>005-009-010-017-018-200100-
NORTH CENTRAL WISCONSIN

CITY           SKY/WX    TMP DP  RH WIND       PRES   REMARKS
MANITOWISH WTR CLEAR     37  34  89 S8        29.78S WCI  30
ARBOR VITAE    CLEAR     38  33  81 S6        29.79S WCI  34
WOODRUFF       CLEAR     38  33  81 S6        29.79S WCI  34
RHINELANDER    CLEAR     36  32  85 S6        29.82R WCI  31
6HR MIN TEMP:  34; 6HR MAX TEMP:  43;

EAGLE RIVER    CLEAR     39  30  69 CALM      29.79F
LAND O LAKES   CLEAR     40  33  74 S3        29.81R
PHILLIPS       PTCLDY    36  32  83 S7        29.79R WCI  31
6HR MIN TEMP:  35; 6HR MAX TEMP:  44;

TOMAHAWK       CLOUDY    32  31  94 S3        29.83R FOG
MEDFORD        FOG       31  30  99 SE5       29.81R VSB 1   WCI  26
MERRILL        CLOUDY    32  32 100 CALM        N/A  FOG
6HR MIN TEMP:  32; 6HR MAX TEMP:  35;

$$

WIZ029-030-035-036-043>047-200100-
CENTRAL WISCONSIN

CITY           SKY/WX    TMP DP  RH WIND       PRES   REMARKS
WAUSAU         CLOUDY    32  31  96 SE8       29.83R FOG     WCI  25
6HR MIN TEMP:  32; 6HR MAX TEMP:  37;

MOSINEE        MOCLDY    32  32 100 E5        29.84S FOG     WCI  27
MARSHFIELD     FOG       32  31  96 E8        29.82R VSB 1/4 WCI  25
6HR MIN TEMP:  31; 6HR MAX TEMP:  34;

STEVENS POINT  CLOUDY    32  32 100 E3        29.85R FOG
WAUPACA        MOCLDY    34  31  91 CALM      29.86F FOG
WAUTOMA        MOCLDY    32  31  96 E3        29.86F FOG
6HR MIN TEMP:  32; 6HR MAX TEMP:  39;

WISC RAPIDS    CLEAR     34  32  92 CALM      29.84F
6HR MIN TEMP:  33; 6HR MAX TEMP:  39;

CAMP DOUGLAS   NOT AVBL
$$

WIZ011>013-019>022-031-037>040-048>050-200100-
NORTHEAST WISCONSIN

CITY           SKY/WX    TMP DP  RH WIND       PRES   REMARKS
ANTIGO         FOG       31  31 100 S7        29.83F VSB 1/4 WCI  24
SHAWANO        CLOUDY    33  32  95 CALM      29.88F FOG
OCONTO         CLOUDY    32  31  97 CALM      29.89R
STURGEON BAY   FOG       32  31  96 S7        29.89F VSB 1/2 WCI  26
6HR MIN TEMP:  32; 6HR MAX TEMP:  34;

GREEN BAY      FOG       33  33 100 CALM      29.87F VSB 1/4
6HR MIN TEMP:  33; 6HR MAX TEMP:  34;

MANITOWOC      FOG       34  32  93 CALM      29.89F VSB 1/4
APPLETON       FOG       32  32 100 CALM      29.84F VSB 1/2
CLINTONVILLE   CLOUDY    32  32 100 CALM      29.87S FOG
OSHKOSH        FOG       33  32  96 CALM      29.85F VSB 1/4
6HR MIN TEMP:  32; 6HR MAX TEMP:  34;

$$

WIZ032>034-041-042-053>061-200100-
SOUTHWEST WISCONSIN

CITY           SKY/WX    TMP DP  RH WIND       PRES   REMARKS
LA CROSSE      LGT RAIN  38  34  85 E7        29.80F WCI  33
6HR MIN TEMP:  35; 6HR MAX TEMP:  39; 6HR PCP:  0.02;

SPARTA         CLOUDY    36  33  87 SE5       29.83F WCI  32
VIROQUA        CLOUDY    35  34  97 E7        29.80S WCI  29
6HR MIN TEMP:  32; 6HR MAX TEMP:  35;

BOSCOBEL       LGT RAIN  37  35  92 CALM      29.82F FOG
6HR MIN TEMP:  37; 6HR MAX TEMP:  39; 6HR PCP:  0.04;

PRAIRIE DU CHI LGT RAIN  36  34  94 CALM      29.80F
PLATTEVILLE    MOCLDY    35  35 100 E7        29.80F WCI  29
$$

WIZ056-057-062-063-064-067-068-200100-
SOUTH CENTRAL WISCONSIN

CITY           SKY/WX    TMP DP  RH WIND       PRES   REMARKS
REEDSBURG      CLOUDY    36  35  96 CALM      29.83F
BARABOO/DELLS  CLOUDY    35  33  92 E3        29.83F FOG
LONE ROCK      NOT AVBL
MINERAL POINT  LGT RAIN  36  36 100 E6        29.80F WCI  31
MADISON        LGT RAIN  36  34  92 CALM      29.85R FOG
6HR MIN TEMP:  33; 6HR MAX TEMP:  36; 6HR PCP:  0.01;

MIDDLETON      CLOUDY    37  37 100 CALM      29.84F
WATERTOWN      CLOUDY    36  36 100 CALM      29.84F
MONROE         LGT RAIN  34  34 100 E5        29.81F VSB 1/4 WCI  30
JANESVILLE     LGT RAIN  37  37 100 CALM      29.83F FOG
$$

WIZ051-052-058>065-066-070>072-200100-
SOUTHEAST WISCONSIN

CITY           SKY/WX    TMP DP  RH WIND       PRES   REMARKS
MILWAUKEE      LGT RAIN  36  34  92 SE8       29.87F VSB 1/8 WCI  30
6HR MIN TEMP:  35; 6HR MAX TEMP:  37; 6HR PCP: TRACE;

WAUKESHA       LGT RAIN  34  34 100 E5        29.86F WCI  30
MILWAUKEE/TIMM DRIZZLE   36  32  87 SE5       29.87F FOG     WCI  32
RACINE         FOG       35  34  96 E7        29.88F VSB 1/4 WCI  29
6HR MIN TEMP:  34; 6HR MAX TEMP:  36;

KENOSHA        FOG       36  35  96 E8        29.86F VSB 3/4 WCI  30
6HR MIN TEMP:  35; 6HR MAX TEMP:  38;

FOND DU LAC    FOG       34  32  92 CALM      29.85F VSB 1/4
6HR MIN TEMP:  33; 6HR MAX TEMP:  35;

SHEBOYGAN      FOG       32  30  92 CALM      29.87F VSB 1/4
6HR MIN TEMP:  32; 6HR MAX TEMP:  34;

WEST BEND      CLOUDY    32  32 100 CALM      29.86S FOG
JUNEAU         CLOUDY    33  33  99 CALM      29.86S FOG
$$

LSZ147-162-200100-
LAKE SUPERIOR

STATION/POSITION TIME  TEMP    WIND        PRES    WAVE
                       AIR SEA DIR/SP/G            HT/PER
                 (UTC) (F)     (DEG/KT/KT) (MB)    (FT/S)
DEVILS ISLAND    2300   35      80/  8/  9 1008.6R
PORT WING        2330   33     170/  3/  4 1008.1R
SAXON HARBOR     2330   34     280/  3/  5 1007.8S
$$

LMZ867-665-643>646-200100-
LAKE MICHIGAN

STATION/POSITION TIME  TEMP    WIND        PRES    WAVE
                       AIR SEA DIR/SP/G            HT/PER
                 (UTC) (F)     (DEG/KT/KT) (MB)    (FT/S)
NORTHPORT PIER   2340   33      CALM  /  5 1012.5R
SISTER BAY       2235   34     200/  8/ 10   N/A
KEWAUNEE LAKESHO 2330   33     190/  7/  8 1011.7F
SHEBOYGAN LAKESH 2300   33     190/  8/  8 1012.2F
PORT WASHINGTON  2330   34     190/  4/  6 1012.5F
MILWAUKEE LAKESH 2330   34     140/  5/  5   N/A
KENOSHA   LAKESH 2300   35     100/  3/  4 1011.9
$$

TC  - TEMPERATURE IN CELSIUS
VSB - VISIBILITY IN STATUTE MILES
WCI - WIND CHILL INDEX
HX  - HEAT INDEX





USA.gov is the U.S. government's official web portal to all federal, state and local government web resources and services.